TimeEST,TemperatureF,Dew PointF,Humidity,Sea Level PressureIn,VisibilityMPH,Wind Direction,Wind SpeedMPH,Gust SpeedMPH,PrecipitationIn,Events,Conditions,WindDirDegrees,DateUTC
12:15 AM,30.2,26.6,86,30.02,10.0,NW,4.6,-,N/A,,Overcast,320,2011-11-24 05:15:00
12:35 AM,30.2,26.6,86,30.02,10.0,NW,3.5,-,N/A,,Overcast,320,2011-11-24 05:35:00
12:55 AM,30.2,26.6,86,30.02,10.0,NW,3.5,-,N/A,,Overcast,310,2011-11-24 05:55:00
1:15 AM,30.2,24.8,80,30.02,10.0,NW,4.6,-,N/A,,Overcast,320,2011-11-24 06:15:00
1:35 AM,30.2,26.6,86,30.03,10.0,NNW,5.8,-,N/A,,Overcast,340,2011-11-24 06:35:00
1:55 AM,30.2,24.8,80,30.04,10.0,NNW,6.9,-,N/A,,Overcast,340,2011-11-24 06:55:00
2:15 AM,30.2,26.6,86,30.04,10.0,NNW,4.6,-,N/A,,Overcast,330,2011-11-24 07:15:00
2:55 AM,30.2,24.8,80,30.05,10.0,NNW,5.8,-,N/A,,Overcast,330,2011-11-24 07:55:00
3:15 AM,30.2,24.8,80,30.04,10.0,North,3.5,-,N/A,,Overcast,360,2011-11-24 08:15:00
3:35 AM,30.2,26.6,86,30.05,10.0,NNW,3.5,-,N/A,,Overcast,330,2011-11-24 08:35:00
4:15 AM,30.2,24.8,80,30.05,10.0,NW,4.6,-,N/A,,Overcast,310,2011-11-24 09:15:00
4:35 AM,30.2,24.8,80,30.06,10.0,WNW,5.8,-,N/A,,Overcast,290,2011-11-24 09:35:00
5:35 AM,30.2,24.8,80,30.07,10.0,NNW,3.5,-,N/A,,Overcast,340,2011-11-24 10:35:00
5:55 AM,30.2,24.8,80,30.08,10.0,NNW,3.5,-,N/A,,Overcast,330,2011-11-24 10:55:00
6:15 AM,30.2,24.8,80,30.09,10.0,Calm,Calm,-,N/A,,Overcast,0,2011-11-24 11:15:00
6:35 AM,30.2,26.6,86,30.10,10.0,West,3.5,-,N/A,,Overcast,280,2011-11-24 11:35:00
6:55 AM,30.2,24.8,80,30.10,10.0,WNW,6.9,-,N/A,,Overcast,290,2011-11-24 11:55:00
7:15 AM,30.2,24.8,80,30.10,10.0,NW,3.5,-,N/A,,Overcast,310,2011-11-24 12:15:00
7:35 AM,30.2,24.8,80,30.11,10.0,Calm,Calm,-,N/A,,Overcast,0,2011-11-24 12:35:00
8:35 AM,30.2,26.6,86,30.11,10.0,SE,4.6,-,N/A,,Overcast,130,2011-11-24 13:35:00
8:55 AM,30.2,24.8,80,30.11,10.0,Calm,Calm,-,N/A,,Overcast,0,2011-11-24 13:55:00
9:15 AM,30.2,24.8,80,30.10,10.0,Calm,Calm,-,N/A,,Overcast,0,2011-11-24 14:15:00
9:35 AM,32.0,24.8,75,30.10,10.0,Calm,Calm,-,N/A,,Overcast,0,2011-11-24 14:35:00
9:55 AM,32.0,26.6,80,30.11,10.0,East,4.6,-,N/A,,Overcast,100,2011-11-24 14:55:00
10:15 AM,33.8,26.6,75,30.11,10.0,Calm,Calm,-,N/A,,Overcast,0,2011-11-24 15:15:00
10:35 AM,33.8,26.6,75,30.12,10.0,Calm,Calm,-,N/A,,Overcast,0,2011-11-24 15:35:00
11:15 AM,33.8,26.6,75,30.10,10.0,Calm,Calm,-,N/A,,Overcast,0,2011-11-24 16:15:00
11:35 AM,33.8,26.6,75,30.10,10.0,Calm,Calm,-,N/A,,Overcast,0,2011-11-24 16:35:00
11:55 AM,33.8,26.6,75,30.10,10.0,Calm,Calm,-,N/A,,Overcast,0,2011-11-24 16:55:00
12:15 PM,35.6,26.6,70,30.09,10.0,Calm,Calm,-,N/A,,Overcast,0,2011-11-24 17:15:00
12:35 PM,35.6,28.4,75,30.09,10.0,NE,3.5,-,N/A,,Overcast,50,2011-11-24 17:35:00
12:55 PM,35.6,28.4,75,30.09,10.0,Calm,Calm,-,N/A,,Overcast,0,2011-11-24 17:55:00
1:15 PM,35.6,28.4,75,30.09,10.0,East,3.5,-,N/A,,Overcast,80,2011-11-24 18:15:00
1:55 PM,35.6,28.4,75,30.08,10.0,Calm,Calm,-,N/A,,Overcast,0,2011-11-24 18:55:00
2:15 PM,35.6,28.4,75,30.08,10.0,Calm,Calm,-,N/A,,Overcast,0,2011-11-24 19:15:00
2:35 PM,35.6,30.2,81,30.09,10.0,East,3.5,-,N/A,,Overcast,100,2011-11-24 19:35:00
3:15 PM,35.6,30.2,81,30.09,10.0,Calm,Calm,-,N/A,,Overcast,0,2011-11-24 20:15:00
3:55 PM,35.6,30.2,81,30.09,10.0,NE,3.5,-,N/A,,Overcast,40,2011-11-24 20:55:00
4:15 PM,35.6,30.2,81,30.10,10.0,Calm,Calm,-,N/A,,Overcast,0,2011-11-24 21:15:00
4:55 PM,33.8,30.2,87,30.10,10.0,Calm,Calm,-,N/A,,Overcast,0,2011-11-24 21:55:00
5:15 PM,33.8,30.2,87,30.11,10.0,Calm,Calm,-,N/A,,Overcast,0,2011-11-24 22:15:00
5:35 PM,33.8,30.2,87,30.11,10.0,Calm,Calm,-,N/A,,Overcast,0,2011-11-24 22:35:00
5:55 PM,33.8,30.2,87,30.12,9.0,Calm,Calm,-,N/A,,Overcast,0,2011-11-24 22:55:00
6:15 PM,33.8,30.2,87,30.11,9.0,Calm,Calm,-,N/A,,Overcast,0,2011-11-24 23:15:00
6:35 PM,33.8,30.2,87,30.12,10.0,Calm,Calm,-,N/A,,Overcast,0,2011-11-24 23:35:00
6:55 PM,33.8,30.2,87,30.13,10.0,East,3.5,-,N/A,,Overcast,90,2011-11-24 23:55:00
7:55 PM,32.0,30.2,93,30.12,7.0,ESE,3.5,-,N/A,,Scattered Clouds,110,2011-11-25 00:55:00
8:35 PM,33.8,30.2,87,30.12,9.0,Calm,Calm,-,N/A,,Overcast,0,2011-11-25 01:35:00
8:55 PM,33.8,30.2,87,30.11,9.0,SSE,4.6,-,N/A,,Overcast,150,2011-11-25 01:55:00
9:55 PM,33.8,30.2,87,30.09,8.0,SE,4.6,-,N/A,,Overcast,130,2011-11-25 02:55:00
10:15 PM,33.8,32.0,93,30.09,7.0,SE,3.5,-,N/A,,Overcast,140,2011-11-25 03:15:00
10:35 PM,33.8,32.0,93,30.09,5.0,SE,3.5,-,N/A,,Mostly Cloudy,140,2011-11-25 03:35:00
10:55 PM,33.8,30.2,87,30.08,6.0,Calm,Calm,-,N/A,,Overcast,0,2011-11-25 03:55:00
11:15 PM,33.8,30.2,87,30.08,4.0,Calm,Calm,-,N/A,,Mostly Cloudy,0,2011-11-25 04:15:00
11:35 PM,33.8,30.2,87,30.08,3.0,East,3.5,-,N/A,,Partly Cloudy,90,2011-11-25 04:35:00
11:55 PM,32.0,30.2,93,30.08,3.0,Calm,Calm,-,N/A,,Partly Cloudy,0,2011-11-25 04:55:00